Погода в Ирдыне

Украина / Черкасская область     49°22′08″N   31°40′34″E
темп.,
°C
ветер,
м/с
пор.,
м/с
влажн.,
%
обл.,
%
осадки,
мм/ч
давл.,
гПа
погр.,
м
1 июля, пт
пт100:00+18с227886 0.0 101712
03:00+17св22865 0.0 101712
06:00+17ссв22820 0.0 101724
09:00+24ссв34520 0.0 1018639
12:00+28ссв45390 0.0 10172127
15:00+30ссв45330 0.0 10162557
18:00+29ссв653528 0.0 10162090
21:00+22св410590 0.0 1017243
2 июля, сб
сб200:00+18св22760 0.0 101922
03:00+16св228313 0.0 101923
06:00+17всв49735 0.0 1021326
09:00+20в55415 0.0 1022780
12:00+23всв55325 0.0 10231222
15:00+25всв44273 0.0 10221585
18:00+24всв45290 0.0 10211423
21:00+17в22510 0.0 102213
3 июля, вс
вс300:00+14в226461 0.0 102311
03:00+13зюз11782 0.0 102311
06:00+14з11730 0.0 102210
09:00+21с22470 0.0 1022613
12:00+26св22280 0.0 10211579
15:00+29в32234 0.0 10192017
18:00+28в33240 0.0 10181901
21:00+20вюв22412 0.0 101912
4 июля, пн
пн400:00+17ююв22520 0.0 101911
03:00+16ююз22580 0.0 101911
06:00+16юз11590 0.0 101911
09:00+25ююз22360 0.0 1019439
12:00+30ююв11240 0.0 10181938
15:00+32ююв22200 0.0 10172597
18:00+31юв32225 0.0 10161875
21:00+23вюв354492 0.0 101762
5 июля, вт
вт500:00+20ююв22565 0.0 101819
03:00+21ю235360 0.0 101855
06:00+20ююз23589 0.0 101851
09:00+24ююз464697 0.0 1018241
12:00+30ююз443193 0.0 1018788
15:00+34ю56258 0.0 10162666
18:00+31ююв572898 0.0 1015662
21:00+26юв41043100 0.0 1015234